Language: 


Des rapports , des résumés tant et plus, au choix de chacun....


Données statistiques de la station
Quotidien Rapport Aout 18, 2017 Unités:  Anglais    Métrique   les deux
« Précédent Jour
Suivant Jour »
Quotidien Hebdomadaire Mensuel Annuel Actuel
  Haut: Bas: Moyen:
Température: 71.2 °F 32 °F 63.5 °F
Pt de rosée: 62.6 °F 50 °F 58.8 °F
Humidité: 97 % 0 % 84 %
Vitesse du vent: 20.6 mph 0 mph 5.8 mph
Rafales: 23.7 mph - -
Vent:- - WSW
Pression: 29.9 in 0 in -
Précipitation: 0.2 in    
Historical Graphs
 
 
Données statistiques pour Aout 18, 2017
Heure Température Point de rosée Pression Vent Vitesse du vent Refales Humidité Pluie (taux horaire)
00:04 61.2 °F 59 °F 29.9 in Calm     93 % 0 in
00:09 61.5 °F 59 °F 29.9 in SSW 2.9 mph 5.6 mph 94 % 0 in
00:14 61.7 °F 60.8 °F 29.9 in SSW 4.7 mph 5.6 mph 95 % 0 in
00:19 61.9 °F 60.8 °F 29.9 in SW 0.9 mph 4.7 mph 95 % 0 in
00:24 62.1 °F 60.8 °F 29.9 in SSW 3.1 mph 6.7 mph 95 % 0 in
00:29 62.2 °F 60.8 °F 29.9 in Calm   6.7 mph 95 % 0 in
00:34 62.4 °F 60.8 °F 29.9 in SSW 3.1 mph 5.4 mph 95 % 0 in
00:39 62.4 °F 60.8 °F 29.9 in Calm   4 mph 95 % 0 in
00:44 62.6 °F 60.8 °F 29.9 in Calm   4 mph 95 % 0 in
00:49 62.6 °F 60.8 °F 29.9 in Calm   4 mph 95 % 0 in
00:55 62.6 °F 60.8 °F 29.9 in Calm   3.8 mph 94 % 0 in
01:00 62.6 °F 60.8 °F 29.9 in Calm   4.3 mph 94 % 0 in
01:05 62.6 °F 60.8 °F 29.9 in Calm   4.3 mph 94 % 0 in
01:10 62.4 °F 60.8 °F 29.9 in Calm   3.4 mph 95 % 0 in
01:15 62.4 °F 60.8 °F 29.9 in Calm   3.4 mph 95 % 0 in
01:20 62.4 °F 60.8 °F 29.9 in Calm   4.9 mph 95 % 0 in
01:25 62.4 °F 60.8 °F 29.9 in Calm   4.9 mph 95 % 0 in
01:30 62.4 °F 60.8 °F 29.9 in Calm     95 % 0 in
01:35 62.4 °F 60.8 °F 29.9 in Calm   4.3 mph 94 % 0 in
01:40 62.2 °F 60.8 °F 29.9 in Calm   4.3 mph 94 % 0 in
01:45 62.2 °F 60.8 °F 29.9 in WSW 0.9 mph 0.9 mph 94 % 0 in
01:50 62.1 °F 60.8 °F 29.9 in Calm   0.9 mph 94 % 0 in
01:55 61.9 °F 60.8 °F 29.9 in Calm     94 % 0 in
02:00 61.7 °F 60.8 °F 29.9 in Calm     94 % 0 in
02:05 61.5 °F 59 °F 29.9 in Calm     94 % 0 in
02:10 61.3 °F 59 °F 29.9 in Calm     94 % 0 in
02:15 61.5 °F 60.8 °F 29.9 in Calm     95 % 0 in
02:20 61.5 °F 60.8 °F 29.9 in Calm     95 % 0 in
02:25 61.5 °F 60.8 °F 29.9 in Calm   0.9 mph 95 % 0 in
02:30 61.7 °F 60.8 °F 29.9 in Calm   1.1 mph 95 % 0 in
02:35 61.7 °F 60.8 °F 29.9 in Calm   1.1 mph 95 % 0 in
02:40 61.9 °F 60.8 °F 29.9 in Calm   0.9 mph 96 % 0 in
02:45 61.9 °F 60.8 °F 29.9 in Calm   2 mph 96 % 0 in
02:47 61.9 °F 60.8 °F 29.9 in SSW 1.3 mph 2.5 mph 96 % 0 in
02:52 61.9 °F 60.8 °F 29.9 in Calm   2.5 mph 96 % 0 in
02:57 61.9 °F 60.8 °F 29.9 in South 2.2 mph 2.5 mph 96 % 0 in
03:02 32 °F 60.8 °F 0 in South 0.9 mph 1.6 mph 0 % 0 in
03:07 62.1 °F 60.8 °F 29.9 in South 1.6 mph 1.6 mph 96 % 0 in
03:12 62.2 °F 60.8 °F 29.9 in Calm   2.7 mph 96 % 0 in
03:17 62.2 °F 60.8 °F 29.9 in Calm   2.7 mph 96 % 0 in
03:22 62.2 °F 60.8 °F 29.9 in SSW 1.1 mph 3.6 mph 95 % 0 in
03:27 62.2 °F 60.8 °F 29.9 in Calm   3.6 mph 95 % 0 in
03:32 62.4 °F 60.8 °F 29.9 in Calm   2 mph 95 % 0 in
03:37 62.4 °F 60.8 °F 29.9 in Calm   1.3 mph 95 % 0 in
03:42 62.4 °F 60.8 °F 29.9 in Calm   2.9 mph 95 % 0 in
03:47 62.4 °F 60.8 °F 29.9 in Calm   2.9 mph 95 % 0 in
03:52 62.4 °F 60.8 °F 29.9 in Calm     95 % 0 in
03:57 62.4 °F 60.8 °F 29.9 in Calm     95 % 0 in
04:02 62.4 °F 60.8 °F 29.9 in Calm     95 % 0 in
04:07 62.4 °F 60.8 °F 29.9 in Calm     95 % 0 in
04:12 62.4 °F 60.8 °F 29.9 in Calm     95 % 0 in
04:17 62.4 °F 60.8 °F 29.9 in Calm     95 % 0 in
04:22 62.4 °F 60.8 °F 29.9 in Calm     95 % 0 in
04:27 62.4 °F 60.8 °F 29.9 in Calm     95 % 0 in
04:32 62.4 °F 60.8 °F 29.9 in Calm     95 % 0 in
04:38 62.4 °F 60.8 °F 29.9 in Calm     95 % 0 in
04:43 62.4 °F 60.8 °F 29.9 in Calm     95 % 0 in
04:48 62.2 °F 60.8 °F 29.9 in South 1.6 mph 1.6 mph 95 % 0 in
04:53 62.2 °F 60.8 °F 29.9 in Calm   1.6 mph 95 % 0 in
04:58 62.4 °F 60.8 °F 29.9 in Calm   1.6 mph 95 % 0 in
05:03 62.4 °F 60.8 °F 29.9 in SSW 1.1 mph 1.1 mph 95 % 0 in
05:08 62.4 °F 60.8 °F 29.9 in Calm   1.1 mph 95 % 0 in
05:14 62.4 °F 60.8 °F 29.9 in Calm   2.5 mph 95 % 0 in
05:19 62.4 °F 60.8 °F 29.9 in Calm   2.5 mph 95 % 0 in
05:21 62.4 °F 60.8 °F 29.9 in Calm     95 % 0 in
05:22 62.6 °F 60.8 °F 29.9 in Calm     95 % 0 in
05:25 62.6 °F 60.8 °F 29.9 in Calm     95 % 0 in
05:27 62.6 °F 60.8 °F 29.9 in Calm     95 % 0 in
05:31 62.6 °F 60.8 °F 29.9 in Calm     95 % 0 in
05:36 62.4 °F 60.8 °F 29.9 in Calm   0.9 mph 95 % 0 in
05:41 62.2 °F 60.8 °F 29.9 in Calm   1.3 mph 95 % 0 in
05:46 62.2 °F 60.8 °F 29.9 in Calm   2 mph 95 % 0 in
05:51 62.2 °F 60.8 °F 29.9 in Calm   2 mph 95 % 0 in
05:56 62.2 °F 60.8 °F 29.9 in Calm     95 % 0 in
06:01 62.1 °F 60.8 °F 29.9 in Calm     95 % 0 in
06:06 62.1 °F 60.8 °F 29.9 in Calm     95 % 0 in
06:11 62.1 °F 60.8 °F 29.9 in Calm     95 % 0 in
06:16 61.9 °F 60.8 °F 29.9 in Calm     96 % 0 in
06:21 61.9 °F 60.8 °F 29.9 in Calm     96 % 0 in
06:26 62.1 °F 60.8 °F 29.9 in Calm     96 % 0 in
06:31 62.1 °F 60.8 °F 29.9 in Calm     96 % 0 in
06:36 62.1 °F 60.8 °F 29.9 in Calm     96 % 0 in
06:41 62.1 °F 60.8 °F 29.9 in Calm     96 % 0 in
06:46 62.1 °F 60.8 °F 29.9 in Calm     96 % 0 in
06:52 62.1 °F 60.8 °F 29.9 in Calm     96 % 0 in
06:57 62.1 °F 60.8 °F 29.9 in Calm     96 % 0 in
07:02 62.2 °F 60.8 °F 29.9 in Calm     96 % 0 in
07:07 62.2 °F 60.8 °F 29.9 in Calm     96 % 0 in
07:12 62.4 °F 62.6 °F 29.9 in Calm     96 % 0 in
07:17 62.4 °F 62.6 °F 29.9 in Calm     96 % 0 in
07:22 62.6 °F 62.6 °F 29.9 in Calm     96 % 0 in
07:27 62.6 °F 62.6 °F 29.9 in Calm     96 % 0 in
07:32 62.6 °F 62.6 °F 29.9 in Calm     96 % 0 in
07:37 62.8 °F 62.6 °F 29.9 in Calm     96 % 0 in
07:42 62.8 °F 62.6 °F 29.9 in Calm     96 % 0 in
07:47 62.8 °F 62.6 °F 29.9 in Calm     96 % 0 in
07:52 62.8 °F 62.6 °F 29.9 in Calm     96 % 0.01 in
07:57 62.8 °F 62.6 °F 29.9 in Calm     96 % 0.02 in
08:02 62.8 °F 62.6 °F 29.9 in Calm     96 % 0.02 in
08:08 62.8 °F 62.6 °F 29.9 in Calm     96 % 0.02 in
08:13 62.8 °F 62.6 °F 29.9 in Calm     96 % 0.02 in
08:18 62.8 °F 62.6 °F 29.9 in Calm     96 % 0.02 in
08:20 62.8 °F 62.6 °F 29.9 in Calm     96 % 0.02 in
08:25 62.8 °F 62.6 °F 29.9 in Calm     96 % 0.02 in
08:30 62.8 °F 62.6 °F 29.9 in Calm     96 % 0.02 in
08:35 62.8 °F 62.6 °F 29.9 in Calm     96 % 0.02 in
08:40 62.8 °F 62.6 °F 29.9 in Calm     96 % 0.02 in
08:45 62.8 °F 62.6 °F 29.9 in Calm     96 % 0.02 in
08:50 63.1 °F 62.6 °F 29.9 in Calm     97 % 0.01 in
08:55 63.1 °F 62.6 °F 29.9 in Calm     97 % 0.01 in
09:00 63.1 °F 62.6 °F 29.9 in Calm     97 % 0.05 in
09:05 63.1 °F 62.6 °F 29.9 in Calm     97 % 0.06 in
09:10 63.1 °F 62.6 °F 29.9 in Calm     97 % 0.06 in
09:15 63.1 °F 62.6 °F 29.9 in Calm     97 % 0.07 in
09:20 63.1 °F 62.6 °F 29.9 in Calm     97 % 0.07 in
09:25 63.1 °F 62.6 °F 29.9 in Calm     97 % 0.07 in
09:30 63.1 °F 62.6 °F 29.9 in Calm     97 % 0.07 in
09:35 63.1 °F 62.6 °F 29.9 in SSW 3.1 mph 4 mph 97 % 0.07 in
09:40 63.1 °F 62.6 °F 29.9 in SSW 3.8 mph 6 mph 97 % 0.07 in
09:45 63.1 °F 62.6 °F 29.9 in SSW 6.3 mph 6.3 mph 97 % 0.07 in
09:50 63.1 °F 62.6 °F 29.9 in WSW 8.5 mph 8.5 mph 97 % 0.07 in
09:55 63.1 °F 62.6 °F 29.9 in WSW 8.5 mph 8.5 mph 97 % 0.1 in
10:00 63.1 °F 62.6 °F 29.9 in WSW 8.5 mph 8.5 mph 97 % 0.09 in
10:06 63.1 °F 62.6 °F 29.9 in WSW 3.8 mph 3.8 mph 97 % 0.07 in
10:11 63.1 °F 62.6 °F 29.9 in WSW 3.8 mph 3.8 mph 97 % 0.06 in
10:16 63.1 °F 62.6 °F 29.9 in WSW 3.8 mph 3.8 mph 97 % 0.09 in
10:21 63.1 °F 62.6 °F 29.9 in WSW 3.8 mph 3.8 mph 97 % 0.1 in
10:26 63.1 °F 62.6 °F 29.9 in WSW 3.8 mph 3.8 mph 97 % 0.11 in
10:31 63.1 °F 62.6 °F 29.9 in WSW 3.8 mph 3.8 mph 97 % 0.11 in
10:36 63.1 °F 62.6 °F 29.9 in WSW 3.8 mph 3.8 mph 97 % 0.11 in
10:41 63.1 °F 62.6 °F 29.9 in West 6.7 mph 7.4 mph 97 % 0.11 in
10:46 63.1 °F 62.6 °F 29.9 in WSW 5.8 mph 8.7 mph 97 % 0.11 in
10:51 63.1 °F 62.6 °F 29.9 in WSW 7.8 mph 8.7 mph 97 % 0.11 in
10:56 63.1 °F 62.6 °F 29.9 in WSW 8.1 mph 13.6 mph 97 % 0.06 in
11:01 63.1 °F 62.6 °F 29.9 in WSW 4.9 mph 13.6 mph 97 % 0.05 in
11:06 63.1 °F 62.6 °F 29.9 in WSW 6.5 mph 12.1 mph 97 % 0.05 in
11:11 63.1 °F 62.6 °F 29.9 in WSW 6 mph 8.1 mph 97 % 0.05 in
11:16 63.1 °F 62.6 °F 29.9 in WSW 8.1 mph 9.4 mph 97 % 0.02 in
11:17 63.1 °F 62.6 °F 29.9 in WSW 12.8 mph 12.8 mph 97 % 0.01 in
11:22 63.1 °F 62.6 °F 29.9 in WSW 8.1 mph 12.8 mph 97 % 0 in
11:27 63.1 °F 62.6 °F 29.9 in WSW 10.7 mph 12.8 mph 97 % 0 in
11:32 63.1 °F 62.6 °F 29.9 in WSW 11 mph 12.3 mph 97 % 0 in
11:37 63.1 °F 62.6 °F 29.9 in WSW 5.4 mph 12.3 mph 97 % 0 in
11:42 63.1 °F 62.6 °F 29.9 in WSW 9.8 mph 11.2 mph 97 % 0 in
11:47 63.1 °F 62.6 °F 29.9 in West 8.1 mph 10.3 mph 97 % 0 in
11:52 63.1 °F 62.6 °F 29.9 in West 7.6 mph 10.3 mph 97 % 0 in
11:57 63.1 °F 62.6 °F 29.9 in WSW 12.8 mph 12.8 mph 97 % 0 in
12:02 63.1 °F 62.6 °F 29.9 in West 10.5 mph 12.8 mph 97 % 0 in
12:07 63.1 °F 62.6 °F 29.9 in WSW 7.4 mph 13.2 mph 97 % 0 in
12:12 63.1 °F 62.6 °F 29.9 in WSW 8.1 mph 13.2 mph 97 % 0 in
12:17 63.1 °F 62.6 °F 29.9 in WSW 10.3 mph 12.8 mph 97 % 0 in
12:22 63.1 °F 62.6 °F 29.9 in West 10.3 mph 12.8 mph 97 % 0 in
12:27 63.1 °F 62.6 °F 29.9 in West 8.1 mph 12.1 mph 97 % 0 in
12:32 63.1 °F 62.6 °F 29.9 in West 20.6 mph 20.6 mph 97 % 0 in
12:37 63.1 °F 62.6 °F 29.9 in West 10.5 mph 20.6 mph 97 % 0 in
12:42 63.1 °F 62.6 °F 29.9 in WSW 12.1 mph 13.2 mph 97 % 0 in
12:47 63.1 °F 62.6 °F 29.9 in WSW 13.6 mph 13.6 mph 97 % 0 in
12:52 63.1 °F 62.6 °F 29.9 in WSW 11 mph 16.1 mph 97 % 0 in
12:57 63.1 °F 62.6 °F 29.9 in WSW 6 mph 17.2 mph 97 % 0 in
13:02 63.1 °F 62.6 °F 29.9 in West 7.8 mph 17.2 mph 97 % 0 in
13:07 63.1 °F 62.6 °F 29.9 in WSW 11.4 mph 13.4 mph 97 % 0 in
13:12 63.1 °F 62.6 °F 29.9 in WNW 10.1 mph 14.8 mph 97 % 0 in
13:17 63.1 °F 62.6 °F 29.9 in West 10.5 mph 14.8 mph 97 % 0 in
13:22 63.1 °F 62.6 °F 29.9 in WSW 10.3 mph 10.7 mph 97 % 0 in
13:27 63.1 °F 62.6 °F 29.9 in SW 14.5 mph 14.5 mph 97 % 0 in
13:32 63.1 °F 62.6 °F 29.9 in WSW 10.3 mph 14.5 mph 97 % 0 in
13:37 63.1 °F 62.6 °F 29.9 in WSW 8.5 mph 12.8 mph 97 % 0 in
13:42 63.1 °F 62.6 °F 29.9 in WSW 9.8 mph 12.5 mph 97 % 0 in
13:47 63.1 °F 62.6 °F 29.9 in West 10.7 mph 14.8 mph 97 % 0 in
13:52 68.7 °F 59 °F 29.9 in WSW 12.1 mph 14.8 mph 71 % 0 in
13:57 68.7 °F 59 °F 29.9 in WSW 10.7 mph 12.8 mph 71 % 0 in
14:02 68.7 °F 59 °F 29.9 in SW 10.3 mph 17.2 mph 71 % 0 in
14:07 68.7 °F 59 °F 29.9 in West 7.8 mph 17.2 mph 71 % 0 in
14:12 68.7 °F 59 °F 29.9 in West 10.1 mph 17.2 mph 71 % 0 in
14:17 68.7 °F 59 °F 29.9 in WSW 11.9 mph 17.2 mph 71 % 0 in
14:22 68.7 °F 59 °F 29.9 in West 14.3 mph 17.2 mph 71 % 0 in
14:28 68.7 °F 59 °F 29.9 in West 12.5 mph 14.8 mph 71 % 0 in
14:33 68.7 °F 59 °F 29.9 in WSW 11 mph 14.8 mph 71 % 0 in
14:38 68.7 °F 59 °F 29.9 in WSW 11 mph 12.8 mph 71 % 0 in
14:43 68.7 °F 59 °F 29.9 in West 7.8 mph 13.2 mph 71 % 0 in
14:48 68.7 °F 59 °F 29.9 in SW 17.4 mph 17.4 mph 71 % 0 in
14:53 68.7 °F 59 °F 29.9 in WSW 11 mph 17.4 mph 71 % 0 in
14:58 68.7 °F 59 °F 29.9 in WSW 6.5 mph 16.6 mph 71 % 0 in
15:03 68.7 °F 59 °F 29.9 in West 4.3 mph 12.8 mph 71 % 0 in
15:08 68.7 °F 59 °F 29.9 in WSW 13.2 mph 15.4 mph 71 % 0 in
15:13 68.7 °F 59 °F 29.9 in WSW 15.7 mph 17.7 mph 71 % 0 in
15:18 68.7 °F 59 °F 29.9 in WNW 10.5 mph 17.7 mph 71 % 0 in
15:23 71.1 °F 59 °F 29.9 in West 17.2 mph 17.2 mph 65 % 0 in
15:28 71.1 °F 59 °F 29.9 in WSW 8.7 mph 17.2 mph 65 % 0 in
15:33 71.1 °F 59 °F 29.8 in WSW 10.1 mph 17.2 mph 65 % 0 in
15:38 71.1 °F 59 °F 29.8 in West 19.7 mph 19.7 mph 65 % 0 in
15:43 71.1 °F 59 °F 29.8 in SSW 7.2 mph 19.7 mph 65 % 0 in
15:48 71.1 °F 59 °F 29.9 in WSW 13.4 mph 19.5 mph 65 % 0 in
15:53 71.1 °F 59 °F 29.9 in WSW 17.2 mph 17.2 mph 65 % 0 in
15:58 71.1 °F 59 °F 29.9 in WNW 12.5 mph 17.2 mph 65 % 0 in
16:03 71.1 °F 59 °F 29.9 in WSW 18.1 mph 18.1 mph 65 % 0 in
16:08 71.1 °F 59 °F 29.9 in West 12.8 mph 18.1 mph 65 % 0 in
16:13 71.1 °F 59 °F 29.9 in West 10.1 mph 19.9 mph 65 % 0 in
16:18 71.1 °F 59 °F 29.9 in WSW 19.9 mph 19.9 mph 65 % 0 in
16:23 71.1 °F 59 °F 29.9 in West 15.2 mph 19.9 mph 65 % 0 in
16:28 71.1 °F 59 °F 29.9 in West 15.4 mph 15.4 mph 65 % 0 in
16:34 71.1 °F 59 °F 29.9 in WSW 11.2 mph 15.4 mph 65 % 0 in
16:39 71.1 °F 59 °F 29.9 in WSW 9.2 mph 15.9 mph 65 % 0 in
16:44 71.2 °F 55.4 °F 29.9 in WSW 7.6 mph 15.9 mph 58 % 0 in
16:49 71.2 °F 53.6 °F 29.9 in West 15.4 mph 15.4 mph 55 % 0 in
16:54 71.2 °F 53.6 °F 29.9 in WSW 12.8 mph 17.2 mph 55 % 0 in
16:59 71.2 °F 53.6 °F 29.9 in WSW 12.8 mph 17.2 mph 55 % 0 in
17:04 71.2 °F 53.6 °F 29.9 in SW 12.3 mph 17.7 mph 55 % 0 in
17:09 71.2 °F 53.6 °F 29.9 in WSW 12.3 mph 17.7 mph 55 % 0 in
17:14 68.4 °F 55.4 °F 29.9 in WSW 11.2 mph 19 mph 60 % 0 in
17:19 68.2 °F 53.6 °F 29.9 in WSW 8.1 mph 19 mph 61 % 0 in
17:24 68.2 °F 53.6 °F 29.9 in SW 13 mph 17.9 mph 61 % 0 in
17:29 68.2 °F 53.6 °F 29.9 in West 13 mph 17.9 mph 61 % 0 in
17:34 68.2 °F 53.6 °F 29.9 in WSW 10.7 mph 16.6 mph 61 % 0 in
17:39 68.2 °F 53.6 °F 29.9 in WSW 12.5 mph 23.5 mph 61 % 0 in
17:44 67.6 °F 53.6 °F 29.9 in WSW 12.5 mph 23.5 mph 60 % 0 in
17:45 67.6 °F 53.6 °F 29.9 in WSW 12.5 mph 23.5 mph 60 % 0 in
17:50 67.3 °F 53.6 °F 29.9 in WNW 15.2 mph 21.9 mph 62 % 0 in
17:55 67.8 °F 55.4 °F 29.9 in WSW 9.2 mph 21.9 mph 64 % 0 in
18:00 67.8 °F 55.4 °F 29.9 in WSW 12.3 mph 19.5 mph 64 % 0 in
18:05 67.8 °F 55.4 °F 29.9 in WSW 13 mph 17.7 mph 64 % 0 in
18:10 67.3 °F 53.6 °F 29.9 in WSW 15.4 mph 19 mph 62 % 0 in
18:15 68 °F 55.4 °F 29.9 in West 17.7 mph 21 mph 62 % 0 in
18:20 67.6 °F 53.6 °F 29.9 in West 13 mph 21 mph 62 % 0 in
18:25 67.6 °F 53.6 °F 29.9 in West 11.9 mph 20.1 mph 62 % 0 in
18:30 67.6 °F 53.6 °F 29.9 in SW 11.2 mph 21.9 mph 62 % 0 in
18:35 67.6 °F 53.6 °F 29.9 in WSW 17.7 mph 21.9 mph 62 % 0 in
18:40 67.6 °F 53.6 °F 29.9 in WSW 13 mph 17.7 mph 62 % 0 in
18:45 68.2 °F 51.8 °F 29.9 in West 19.9 mph 19.9 mph 56 % 0 in
18:50 67.8 °F 51.8 °F 29.9 in WSW 17.9 mph 23.7 mph 54 % 0 in
18:55 67.8 °F 51.8 °F 29.9 in WSW 12.8 mph 23.7 mph 55 % 0 in
19:00 67.8 °F 51.8 °F 29.9 in West 15.2 mph 19.2 mph 55 % 0 in
19:06 67.8 °F 51.8 °F 29.9 in West 17.2 mph 18.6 mph 55 % 0 in
19:11 67.3 °F 50 °F 29.9 in West 13.9 mph 23.5 mph 54 % 0 in
19:16 67.5 °F 51.8 °F 29.9 in WSW 15.4 mph 23.5 mph 56 % 0 in
19:21 67.5 °F 51.8 °F 29.9 in West 7.8 mph 20.1 mph 56 % 0 in
19:26 67.5 °F 51.8 °F 29.9 in West 12.1 mph 16.1 mph 56 % 0 in
19:31 67.5 °F 51.8 °F 29.9 in West 12.5 mph 16.1 mph 56 % 0 in
19:36 67.3 °F 51.8 °F 29.9 in West 10.1 mph 13.4 mph 57 % 0 in
19:41 67.3 °F 51.8 °F 29.9 in West 19.5 mph 19.5 mph 57 % 0 in
19:46 32 °F 51.8 °F 29.9 in WSW 13.9 mph 19.4 mph 0 % 0 in
19:52 66.2 °F 51.8 °F 29.9 in SW 12.5 mph 17.2 mph 58 % 0 in
19:57 65.5 °F 51.8 °F 29.9 in WSW 13.2 mph 13.6 mph 61 % 0 in
20:02 64.8 °F 51.8 °F 29.9 in West 11.9 mph 17.2 mph 61 % 0 in
20:07 64.6 °F 51.8 °F 29.9 in West 13.2 mph 17.2 mph 62 % 0 in
20:12 64.2 °F 51.8 °F 29.9 in West 11.9 mph 17.2 mph 63 % 0 in
20:17 63.9 °F 51.8 °F 29.9 in WSW 6.5 mph 14.5 mph 64 % 0 in
20:22 63.7 °F 51.8 °F 29.9 in WSW 11.4 mph 17.7 mph 64 % 0 in
20:27 63.7 °F 51.8 °F 29.9 in WSW 12.5 mph 19.5 mph 64 % 0 in
20:32 63.7 °F 51.8 °F 29.9 in West 10.5 mph 19.5 mph 64 % 0 in
20:37 63.7 °F 51.8 °F 29.9 in West 10.1 mph 12.5 mph 64 % 0 in
20:42 63.7 °F 51.8 °F 29.9 in WSW 9.6 mph 13 mph 64 % 0 in
20:47 63.7 °F 51.8 °F 29.9 in WSW 10.3 mph 15.4 mph 64 % 0 in
20:52 63.7 °F 51.8 °F 29.9 in WSW 8.5 mph 15.4 mph 64 % 0 in
20:57 61.9 °F 53.6 °F 29.9 in West 6.3 mph 13.2 mph 72 % 0 in
21:02 61.7 °F 53.6 °F 29.9 in West 6.3 mph 13.6 mph 73 % 0 in
21:07 61.3 °F 53.6 °F 29.9 in WSW 6 mph 13.6 mph 74 % 0 in
21:12 61.2 °F 53.6 °F 29.9 in WSW 7.8 mph 10.5 mph 74 % 0 in
21:17 60.8 °F 53.6 °F 29.9 in West 7.6 mph 8.7 mph 75 % 0 in
21:22 60.6 °F 53.6 °F 29.9 in WSW 7.6 mph 8.7 mph 77 % 0 in
21:27 60.6 °F 53.6 °F 29.9 in West 4.3 mph 10.1 mph 75 % 0 in
21:32 60.4 °F 53.6 °F 29.9 in WSW 12.3 mph 12.3 mph 75 % 0 in
21:37 60.3 °F 53.6 °F 29.9 in WSW 5.6 mph 12.3 mph 75 % 0 in
21:42 60.3 °F 53.6 °F 29.9 in WSW 7.6 mph 11 mph 75 % 0 in
21:47 60.1 °F 53.6 °F 29.9 in WSW 10.7 mph 12.5 mph 75 % 0 in
21:52 59.7 °F 51.8 °F 29.9 in WSW 6 mph 12.5 mph 76 % 0 in
21:58 59.4 °F 53.6 °F 29.9 in West 4.9 mph 10.7 mph 77 % 0 in
22:03 59 °F 51.8 °F 29.9 in WSW 5.6 mph 6.5 mph 77 % 0 in
22:08 58.6 °F 51.8 °F 29.9 in WSW 3.1 mph 5.6 mph 79 % 0 in
22:13 58.1 °F 51.8 °F 29.9 in WSW 4.9 mph 7.2 mph 79 % 0 in
22:18 58.1 °F 53.6 °F 29.9 in West 6.5 mph 7.2 mph 81 % 0 in
22:23 58.1 °F 53.6 °F 29.9 in WSW 4.9 mph 7.2 mph 81 % 0 in
22:28 57.9 °F 53.6 °F 29.9 in SW 3.8 mph 6.9 mph 82 % 0 in
22:33 57.7 °F 53.6 °F 29.9 in WSW 5.4 mph 7.6 mph 83 % 0 in
22:38 57.6 °F 53.6 °F 29.9 in WSW 5.6 mph 7.6 mph 83 % 0 in
22:43 57.4 °F 51.8 °F 29.9 in WSW 3.8 mph 6.5 mph 83 % 0 in
22:48 57.2 °F 51.8 °F 29.9 in SSW 0.9 mph 6.5 mph 83 % 0 in
22:53 57.2 °F 53.6 °F 29.9 in WSW 5.4 mph 6 mph 84 % 0 in
22:58 57 °F 53.6 °F 29.9 in WSW 4 mph 6 mph 85 % 0 in
23:03 56.8 °F 53.6 °F 29.9 in SW 2.2 mph 6 mph 85 % 0 in
23:08 56.8 °F 53.6 °F 29.9 in Calm   6.3 mph 85 % 0 in
23:18 56.5 °F 53.6 °F 29.9 in Calm   6.5 mph 86 % 0 in
23:23 56.3 °F 53.6 °F 29.9 in WSW 2.5 mph 5.6 mph 87 % 0 in
23:28 56.3 °F 53.6 °F 29.9 in WSW 1.1 mph 6.5 mph 87 % 0 in
23:34 56.3 °F 53.6 °F 29.9 in WSW 1.1 mph 6.5 mph 87 % 0 in
23:39 56.1 °F 53.6 °F 29.9 in WSW 3.1 mph 6 mph 87 % 0 in
23:44 55.9 °F 53.6 °F 29.9 in Calm   3.1 mph 87 % 0 in
23:49 55.9 °F 53.6 °F 29.9 in Calm   3.1 mph 87 % 0 in
23:54 55.9 °F 53.6 °F 29.9 in Calm     87 % 0 in
23:59 55.9 °F 53.6 °F 29.9 in Calm   2.5 mph 87 % 0 in
Le Gheer Warneton
Courtoisie de Weather Underground - 2.5 mb

Mise a jour : 17/12/2017 22:14:12
Généré par Cumulus 1.9.4 (1099)